FDX6067 LOWW-EGLL

Flight info

Callsign FDX6067
Flight time N/A
Altitude 32000
Route BUWUT2A/11 BUWUT DCT DITIS DCT IPDUL DCT OKG DCT VELIS DCT SWALM DCT TIVUN DCT BREDA DCT ABNED L980 LOGAN
Aircraft B77L/H-SDE1E2E3FGHIJ2J3J4J5M1RWXY/LB1D1

Departure

Time N/A
Airport Vienna International Airport (LOWW)

Arrival

Time 2026-05-03 21:23
Airport London Heathrow Airport (EGLL)
Time Latitude Longitude Altitude Speed Heading
2026-05-03 20:15 50.48286 10.40585 38046 ft 469 kts 284°
2026-05-03 20:15 50.50254 10.30780 37980 ft 477 kts 284°
2026-05-03 20:16 50.52246 10.20833 37991 ft 478 kts 284°
2026-05-03 20:16 50.54229 10.10869 37962 ft 476 kts 284°
2026-05-03 20:17 50.56195 10.00925 37976 ft 474 kts 284°
2026-05-03 20:17 50.58112 9.91175 37977 ft 472 kts 284°
2026-05-03 20:18 50.60041 9.81315 37982 ft 471 kts 284°
2026-05-03 20:18 50.61956 9.71475 37971 ft 469 kts 283°
2026-05-03 20:19 50.63857 9.61659 37970 ft 468 kts 283°
2026-05-03 20:19 50.65608 9.52566 37968 ft 467 kts 283°
2026-05-03 20:20 50.67475 9.42827 37968 ft 466 kts 283°
2026-05-03 20:20 50.69343 9.33035 37981 ft 467 kts 283°
2026-05-03 20:21 50.71207 9.23215 37969 ft 468 kts 283°
2026-05-03 20:21 50.73022 9.13317 37974 ft 469 kts 282°
2026-05-03 20:22 50.74744 9.03384 37962 ft 470 kts 282°
2026-05-03 20:22 50.76439 8.93550 37967 ft 471 kts 282°
2026-05-03 20:23 50.78164 8.83556 37965 ft 471 kts 282°
2026-05-03 20:23 50.79889 8.73546 37967 ft 472 kts 282°
2026-05-03 20:24 50.81605 8.63530 37971 ft 472 kts 282°
2026-05-03 20:24 50.83312 8.53505 37969 ft 472 kts 281°
2026-05-03 20:25 50.84998 8.43546 37989 ft 471 kts 281°
2026-05-03 20:25 50.86686 8.33512 37982 ft 472 kts 281°
2026-05-03 20:26 50.88366 8.23473 37995 ft 472 kts 281°
2026-05-03 20:26 50.90038 8.13417 37986 ft 472 kts 281°
2026-05-03 20:27 50.91436 8.04978 37989 ft 472 kts 281°
2026-05-03 20:27 50.93154 7.95145 37983 ft 474 kts 285°
2026-05-03 20:28 50.95297 7.85261 37993 ft 475 kts 285°
2026-05-03 20:28 50.97486 7.75374 37985 ft 475 kts 285°
2026-05-03 20:29 50.99635 7.65534 37986 ft 474 kts 285°
2026-05-03 20:29 51.01765 7.55656 37999 ft 474 kts 285°
2026-05-03 20:30 51.03890 7.45724 37995 ft 474 kts 285°
2026-05-03 20:30 51.06003 7.35796 37980 ft 473 kts 285°
2026-05-03 20:31 51.08105 7.25883 37992 ft 473 kts 285°
2026-05-03 20:31 51.10196 7.15970 37985 ft 472 kts 285°
2026-05-03 20:32 51.12262 7.06130 37977 ft 472 kts 285°
2026-05-03 20:32 51.14294 6.96409 37973 ft 471 kts 285°
2026-05-03 20:33 51.16353 6.86499 37958 ft 471 kts 285°
2026-05-03 20:33 51.18402 6.76595 37968 ft 470 kts 284°
2026-05-03 20:34 51.20440 6.66697 37989 ft 470 kts 284°
2026-05-03 20:34 51.22467 6.56799 37966 ft 470 kts 284°
2026-05-03 20:35 51.24490 6.46869 37967 ft 470 kts 284°
2026-05-03 20:35 51.26506 6.36930 37968 ft 470 kts 284°
2026-05-03 20:36 51.28500 6.27045 37962 ft 471 kts 284°
2026-05-03 20:36 51.30502 6.17071 37965 ft 471 kts 284°
2026-05-03 20:37 51.32498 6.07076 37950 ft 472 kts 284°
2026-05-03 20:37 51.34447 5.97267 37942 ft 472 kts 284°
2026-05-03 20:38 51.36432 5.87227 37941 ft 473 kts 284°
2026-05-03 20:38 51.38404 5.77200 37937 ft 473 kts 284°
2026-05-03 20:39 51.40371 5.67142 37945 ft 474 kts 283°
2026-05-03 20:39 51.42336 5.57045 37940 ft 474 kts 283°
2026-05-03 20:40 51.44276 5.47025 37941 ft 474 kts 283°
2026-05-03 20:40 51.46215 5.36954 37944 ft 475 kts 283°
2026-05-03 20:41 51.48150 5.26855 37963 ft 475 kts 283°
2026-05-03 20:41 51.50053 5.16863 37945 ft 474 kts 283°
2026-05-03 20:42 51.51975 5.06721 37940 ft 474 kts 283°
2026-05-03 20:42 51.53852 4.96767 37938 ft 473 kts 283°
2026-05-03 20:43 51.55748 4.86658 37936 ft 473 kts 283°
2026-05-03 20:43 51.57600 4.76527 37945 ft 472 kts 282°
2026-05-03 20:44 51.59396 4.66421 37932 ft 472 kts 282°
2026-05-03 20:44 51.61194 4.56257 37935 ft 473 kts 282°
2026-05-03 20:45 51.62990 4.46085 37932 ft 473 kts 282°
2026-05-03 20:45 51.64783 4.35885 37931 ft 473 kts 282°
2026-05-03 20:46 51.66567 4.25684 37927 ft 474 kts 282°
2026-05-03 20:46 51.68345 4.15457 37922 ft 474 kts 282°
2026-05-03 20:47 51.70068 4.05484 37920 ft 474 kts 282°
2026-05-03 20:47 51.71764 3.95612 37915 ft 474 kts 282°
2026-05-03 20:48 51.73515 3.85365 37927 ft 474 kts 282°
2026-05-03 20:48 51.75259 3.75094 37930 ft 475 kts 282°
2026-05-03 20:49 51.76998 3.64793 37920 ft 475 kts 281°
2026-05-03 20:49 51.78731 3.54472 37915 ft 475 kts 281°
2026-05-03 20:50 51.80444 3.44204 37911 ft 475 kts 281°
2026-05-03 20:50 51.82166 3.33826 37920 ft 475 kts 281°
2026-05-03 20:51 51.83818 3.23506 37918 ft 473 kts 277°
2026-05-03 20:51 51.84466 3.13119 37841 ft 454 kts 268°
2026-05-03 20:51 51.84385 3.08153 37547 ft 443 kts 262°
2026-05-03 20:52 51.84077 3.03195 36912 ft 441 kts 261°
2026-05-03 20:52 51.83743 2.98438 36252 ft 442 kts 260°
2026-05-03 20:52 51.83390 2.93446 35592 ft 442 kts 260°
2026-05-03 20:52 51.83051 2.88543 34923 ft 443 kts 261°
2026-05-03 20:53 51.82719 2.83597 34257 ft 444 kts 261°
2026-05-03 20:53 51.82392 2.78642 33569 ft 444 kts 260°
2026-05-03 20:53 51.82065 2.73658 32795 ft 444 kts 260°
2026-05-03 20:53 51.81734 2.68691 31977 ft 445 kts 260°
2026-05-03 20:54 51.81399 2.63719 31161 ft 446 kts 259°
2026-05-03 20:54 51.80711 2.53747 29631 ft 446 kts 259°
2026-05-03 20:54 51.80366 2.48789 28952 ft 442 kts 259°
2026-05-03 20:55 51.80024 2.43883 28379 ft 437 kts 259°
2026-05-03 20:55 51.79683 2.39026 27757 ft 434 kts 260°
2026-05-03 20:55 51.79341 2.34195 27052 ft 433 kts 260°
2026-05-03 20:55 51.79001 2.29395 26495 ft 429 kts 260°
2026-05-03 20:56 51.78663 2.24640 26209 ft 419 kts 260°
2026-05-03 20:56 51.78358 2.20052 26121 ft 406 kts 262°
2026-05-03 20:56 51.78245 2.15540 26021 ft 394 kts 265°
2026-05-03 20:56 51.78232 2.11236 25938 ft 383 kts 266°
2026-05-03 20:57 51.78246 2.07000 25861 ft 371 kts 266°
2026-05-03 20:57 51.78270 2.02907 25759 ft 359 kts 266°
2026-05-03 20:57 51.78300 1.99001 25626 ft 350 kts 266°
2026-05-03 20:57 51.78333 1.95110 25392 ft 343 kts 266°
2026-05-03 20:58 51.78362 1.91336 25028 ft 341 kts 266°
2026-05-03 20:58 51.78386 1.87522 24929 ft 339 kts 266°
2026-05-03 20:58 51.78404 1.83706 24929 ft 342 kts 266°
2026-05-03 20:58 51.78418 1.79782 24926 ft 346 kts 266°
2026-05-03 20:59 51.78429 1.75951 24870 ft 345 kts 266°
2026-05-03 20:59 51.78439 1.72023 24557 ft 344 kts 266°
2026-05-03 20:59 51.78445 1.68220 24191 ft 342 kts 266°
2026-05-03 20:59 51.78445 1.64402 23853 ft 339 kts 266°
2026-05-03 21:00 51.78439 1.60596 23504 ft 336 kts 266°
2026-05-03 21:00 51.78436 1.59329 23364 ft 336 kts 266°
2026-05-03 21:00 51.78410 1.53089 22637 ft 333 kts 266°
2026-05-03 21:00 51.78390 1.49358 22211 ft 331 kts 266°
2026-05-03 21:01 51.78371 1.45651 21798 ft 329 kts 268°
2026-05-03 21:01 51.78637 1.41971 21349 ft 331 kts 278°
2026-05-03 21:01 51.79148 1.38357 20932 ft 331 kts 281°
2026-05-03 21:01 51.79707 1.34827 20381 ft 321 kts 281°
2026-05-03 21:02 51.80269 1.31346 19512 ft 320 kts 281°
2026-05-03 21:02 51.80833 1.27858 18714 ft 318 kts 281°
2026-05-03 21:02 51.81388 1.24406 17852 ft 316 kts 281°
2026-05-03 21:02 51.81934 1.20982 17004 ft 313 kts 281°
2026-05-03 21:03 51.82467 1.17610 16323 ft 306 kts 281°
2026-05-03 21:03 51.82692 1.14186 16115 ft 307 kts 258°
2026-05-03 21:03 51.81878 1.11084 15928 ft 301 kts 228°
2026-05-03 21:03 51.80360 1.08793 15914 ft 299 kts 218°
2026-05-03 21:04 51.78720 1.06737 15898 ft 298 kts 218°
2026-05-03 21:04 51.77102 1.04634 15892 ft 298 kts 220°
2026-05-03 21:04 51.75544 1.02470 15904 ft 299 kts 221°
2026-05-03 21:04 51.73994 1.00236 15913 ft 299 kts 222°
2026-05-03 21:05 51.72499 0.98055 15908 ft 299 kts 222°
2026-05-03 21:05 51.71051 0.95649 15895 ft 299 kts 236°
2026-05-03 21:05 51.70211 0.92612 15915 ft 301 kts 256°
2026-05-03 21:05 51.69912 0.89292 15918 ft 303 kts 262°
2026-05-03 21:06 51.69699 0.85919 15551 ft 301 kts 262°
2026-05-03 21:06 51.69493 0.82590 14906 ft 299 kts 262°
2026-05-03 21:06 51.69279 0.79269 14203 ft 295 kts 262°
2026-05-03 21:06 51.69058 0.76011 13434 ft 291 kts 262°
2026-05-03 21:07 51.68833 0.72810 12588 ft 289 kts 262°
2026-05-03 21:07 51.68606 0.69604 11758 ft 287 kts 262°
2026-05-03 21:07 51.68382 0.66464 10977 ft 284 kts 262°
2026-05-03 21:07 51.68156 0.63310 10207 ft 282 kts 262°
2026-05-03 21:08 51.67932 0.60193 9462 ft 279 kts 262°
2026-05-03 21:08 51.67706 0.57052 9190 ft 284 kts 262°
2026-05-03 21:08 51.67478 0.53901 9016 ft 282 kts 262°
2026-05-03 21:08 51.67252 0.50796 9048 ft 277 kts 262°
2026-05-03 21:09 51.67027 0.47718 8903 ft 276 kts 262°
2026-05-03 21:09 51.66802 0.44655 8488 ft 274 kts 262°
2026-05-03 21:09 51.66580 0.41634 7885 ft 273 kts 262°
2026-05-03 21:09 51.66357 0.38617 7314 ft 273 kts 262°
2026-05-03 21:10 51.66131 0.35561 7156 ft 276 kts 262°
2026-05-03 21:10 51.65902 0.32486 7000 ft 275 kts 262°
2026-05-03 21:10 51.65675 0.29439 6997 ft 273 kts 262°
2026-05-03 21:10 51.65449 0.26398 6998 ft 274 kts 262°
2026-05-03 21:11 51.65298 0.24378 6987 ft 274 kts 262°
2026-05-03 21:11 51.65068 0.21331 6978 ft 273 kts 262°
2026-05-03 21:11 51.64838 0.18286 6993 ft 275 kts 262°
2026-05-03 21:11 51.64609 0.15238 6994 ft 274 kts 263°
2026-05-03 21:12 51.64563 0.12166 6981 ft 274 kts 271°
2026-05-03 21:12 51.64664 0.09109 6987 ft 274 kts 272°
2026-05-03 21:12 51.64780 0.06044 6995 ft 274 kts 272°
2026-05-03 21:12 51.64886 0.02975 6984 ft 274 kts 271°
2026-05-03 21:13 51.64980 -0.00055 6996 ft 274 kts 271°
2026-05-03 21:13 51.65062 -0.02958 7014 ft 275 kts 271°
2026-05-03 21:13 51.65144 -0.06047 7011 ft 275 kts 271°
2026-05-03 21:13 51.65199 -0.08231 7012 ft 276 kts 271°
2026-05-03 21:14 51.65274 -0.11294 7012 ft 270 kts 271°
2026-05-03 21:14 51.65345 -0.14217 6871 ft 253 kts 270°
2026-05-03 21:14 51.65074 -0.16921 6513 ft 242 kts 241°
2026-05-03 21:14 51.64001 -0.18927 6113 ft 236 kts 214°
2026-05-03 21:15 51.62546 -0.20122 5706 ft 234 kts 200°
2026-05-03 21:15 51.61021 -0.20967 5291 ft 233 kts 198°
2026-05-03 21:15 51.59505 -0.21658 4869 ft 229 kts 186°
2026-05-03 21:15 51.57967 -0.21305 4364 ft 229 kts 156°
2026-05-03 21:16 51.56664 -0.19875 3877 ft 230 kts 133°
2026-05-03 21:16 51.55673 -0.17876 3451 ft 231 kts 126°
2026-05-03 21:16 51.54741 -0.15817 3213 ft 222 kts 126°
2026-05-03 21:16 51.53887 -0.13932 3079 ft 206 kts 128°
2026-05-03 21:17 51.52965 -0.12283 2660 ft 196 kts 131°
2026-05-03 21:17 51.52098 -0.10643 2378 ft 187 kts 131°
2026-05-03 21:17 51.51253 -0.09081 2655 ft 185 kts 130°
2026-05-03 21:17 51.50511 -0.07368 2880 ft 189 kts 122°
2026-05-03 21:18 51.49533 -0.06000 2758 ft 190 kts 167°
2026-05-03 21:18 51.48280 -0.06297 2507 ft 191 kts 220°
2026-05-03 21:18 51.47608 -0.08130 2522 ft 194 kts 254°
2026-05-03 21:18 51.47268 -0.10167 2683 ft 187 kts 270°
2026-05-03 21:19 51.47420 -0.12213 2712 ft 192 kts 279°
2026-05-03 21:19 51.47711 -0.14297 2776 ft 191 kts 283°
2026-05-03 21:19 51.47965 -0.16390 2794 ft 191 kts 274°
2026-05-03 21:19 51.47961 -0.18510 2755 ft 188 kts 268°
2026-05-03 21:20 51.47919 -0.20592 2593 ft 185 kts 269°
2026-05-03 21:20 51.47892 -0.22625 2543 ft 182 kts 268°
2026-05-03 21:20 51.47854 -0.24672 2509 ft 185 kts 268°
2026-05-03 21:20 51.47823 -0.26742 2511 ft 187 kts 269°
2026-05-03 21:21 51.47811 -0.28843 2502 ft 188 kts 270°
2026-05-03 21:21 51.47806 -0.30964 2350 ft 191 kts 270°
2026-05-03 21:21 51.47804 -0.33063 2227 ft 185 kts 270°
2026-05-03 21:21 51.47811 -0.35166 1804 ft 191 kts 270°
2026-05-03 21:22 51.47808 -0.37246 1309 ft 186 kts 270°
2026-05-03 21:22 51.47801 -0.39332 684 ft 188 kts 269°
2026-05-03 21:22 51.47788 -0.41367 313 ft 176 kts 270°
2026-05-03 21:22 51.47777 -0.43247 107 ft 166 kts 270°
2026-05-03 21:23 51.47760 -0.44797 96 ft 84 kts 270°
2026-05-03 21:23 51.47760 -0.45516 92 ft 34 kts 270°
2026-05-03 21:23 51.47716 -0.45863 93 ft 31 kts 232°
2026-05-03 21:23 51.47681 -0.45923 91 ft 0 kts 221°
2026-05-03 21:24 51.47677 -0.45929 92 ft 7 kts 220°
2026-05-03 21:25 51.47601 -0.46062 94 ft 23 kts 245°
2026-05-03 21:25 51.47593 -0.46369 94 ft 33 kts 269°
2026-05-03 21:25 51.47591 -0.46737 91 ft 30 kts 269°
2026-05-03 21:25 51.47496 -0.46924 94 ft 24 kts 165°
2026-05-03 21:26 51.47334 -0.46862 91 ft 24 kts 176°
2026-05-03 21:26 51.47164 -0.46865 91 ft 24 kts 179°
2026-05-03 21:26 51.46994 -0.46861 92 ft 24 kts 179°
2026-05-03 21:26 51.46825 -0.46862 93 ft 24 kts 180°
2026-05-03 21:27 51.46666 -0.46892 95 ft 20 kts 220°
2026-05-03 21:27 51.46654 -0.47104 92 ft 20 kts 272°
2026-05-03 21:27 51.46655 -0.47326 93 ft 20 kts 269°
2026-05-03 21:27 51.46631 -0.47466 94 ft 0 kts 214°
2026-05-03 21:28 51.46614 -0.47477 92 ft 0 kts 199°
2026-05-03 21:29 51.46611 -0.47478 93 ft 6 kts 197°
2026-05-03 21:29 51.46457 -0.47492 93 ft 23 kts 180°
2026-05-03 21:29 51.46337 -0.47386 94 ft 22 kts 113°
2026-05-03 21:30 51.46232 -0.47258 95 ft 20 kts 176°
2026-05-03 21:30 51.46127 -0.47340 95 ft 18 kts 232°
2026-05-03 21:30 51.46113 -0.47370 94 ft 0 kts 232°